Time,TemperatureF,DewpointF,PressureIn,WindDirection,WindDirectionDegrees,WindSpeedMPH,WindSpeedGustMPH,Humidity,HourlyPrecipIn,Conditions,Clouds,dailyrainin,SoftwareType,DateUTC
2013-04-20 00:02:00,28.0,25.0,30.11,WNW,290,0.0,0.0,89,-99.99,,,-99.99,,2013-04-20 06:02:00,
2013-04-20 00:12:00,28.0,25.0,30.11,WNW,290,0.0,0.0,90,-99.99,,,-99.99,,2013-04-20 06:12:00,
2013-04-20 00:17:00,28.0,25.0,30.11,WNW,290,0.0,0.0,89,-99.99,,,-99.99,,2013-04-20 06:17:00,
2013-04-20 00:22:00,27.0,25.0,30.11,WNW,290,0.0,0.0,90,-99.99,,,-99.99,,2013-04-20 06:22:00,
2013-04-20 00:27:00,27.0,24.0,30.10,WNW,290,0.0,0.0,90,-99.99,,,-99.99,,2013-04-20 06:27:00,
2013-04-20 00:32:00,27.0,24.0,30.11,WNW,290,0.0,0.0,91,-99.99,,,-99.99,,2013-04-20 06:32:00,
2013-04-20 00:37:00,27.0,24.0,30.11,WNW,290,0.0,0.0,91,-99.99,,,-99.99,,2013-04-20 06:37:00,
2013-04-20 00:42:00,27.0,24.0,30.11,WNW,290,0.0,0.0,91,-99.99,,,-99.99,,2013-04-20 06:42:00,
2013-04-20 00:52:00,27.0,24.0,30.11,WNW,290,0.0,0.0,91,-99.99,,,-99.99,,2013-04-20 06:52:00,
2013-04-20 01:02:00,27.0,24.0,30.10,WNW,290,0.0,0.0,91,-99.99,,,-99.99,,2013-04-20 07:02:00,
2013-04-20 01:12:00,27.0,24.0,30.10,WNW,290,0.0,0.0,91,-99.99,,,-99.99,,2013-04-20 07:12:00,
2013-04-20 01:22:00,27.0,24.0,30.10,WNW,290,0.0,0.0,92,-99.99,,,-99.99,,2013-04-20 07:22:00,
2013-04-20 01:32:00,27.0,25.0,30.09,WNW,290,0.0,0.0,92,-99.99,,,-99.99,,2013-04-20 07:32:00,
2013-04-20 01:42:00,26.0,24.0,30.09,WNW,290,0.0,0.0,92,-99.99,,,-99.99,,2013-04-20 07:42:00,
2013-04-20 01:47:00,26.0,24.0,30.09,WNW,290,0.0,0.0,92,-99.99,,,-99.99,,2013-04-20 07:47:00,
2013-04-20 01:52:00,26.0,24.0,30.09,WNW,290,0.0,0.0,92,-99.99,,,-99.99,,2013-04-20 07:52:00,
2013-04-20 02:02:00,26.0,24.0,30.09,WNW,290,0.0,0.0,93,-99.99,,,-99.99,,2013-04-20 08:02:00,
2013-04-20 02:07:00,26.0,24.0,30.09,WNW,290,0.0,0.0,93,-99.99,,,-99.99,,2013-04-20 08:07:00,
2013-04-20 02:17:00,26.0,25.0,30.08,WNW,290,0.0,0.0,93,-99.99,,,-99.99,,2013-04-20 08:17:00,
2013-04-20 02:27:00,26.0,25.0,30.08,WNW,290,0.0,0.0,94,-99.99,,,-99.99,,2013-04-20 08:27:00,
2013-04-20 02:32:00,26.0,25.0,30.07,WNW,290,0.0,0.0,94,-99.99,,,-99.99,,2013-04-20 08:32:00,
2013-04-20 02:37:00,26.0,25.0,30.07,WNW,290,0.0,0.0,94,-99.99,,,-99.99,,2013-04-20 08:37:00,
2013-04-20 02:42:00,27.0,25.0,30.07,WNW,290,0.0,0.0,94,-99.99,,,-99.99,,2013-04-20 08:42:00,
2013-04-20 02:47:00,27.0,25.0,30.07,WNW,290,0.0,0.0,94,-99.99,,,-99.99,,2013-04-20 08:47:00,
2013-04-20 02:57:00,27.0,25.0,30.07,WNW,290,0.0,0.0,94,-99.99,,,-99.99,,2013-04-20 08:57:00,
2013-04-20 03:07:00,27.0,25.0,30.07,WNW,290,0.0,0.0,94,-99.99,,,-99.99,,2013-04-20 09:07:00,
2013-04-20 03:12:00,27.0,25.0,30.07,WNW,290,0.0,0.0,94,-99.99,,,-99.99,,2013-04-20 09:12:00,
2013-04-20 03:17:00,27.0,25.0,30.06,WNW,290,0.0,0.0,95,-99.99,,,-99.99,,2013-04-20 09:17:00,
2013-04-20 03:27:00,27.0,25.0,30.06,WNW,290,0.0,0.0,94,-99.99,,,-99.99,,2013-04-20 09:27:00,
2013-04-20 03:37:00,27.0,25.0,30.06,WNW,290,0.0,0.0,95,-99.99,,,-99.99,,2013-04-20 09:37:00,
2013-04-20 03:47:00,27.0,25.0,30.06,WNW,290,0.0,0.0,95,-99.99,,,-99.99,,2013-04-20 09:47:00,
2013-04-20 03:57:00,26.0,25.0,30.06,WNW,290,0.0,0.0,96,-99.99,,,-99.99,,2013-04-20 09:57:00,
2013-04-20 04:02:00,26.0,25.0,30.06,WNW,290,0.0,0.0,96,-99.99,,,-99.99,,2013-04-20 10:02:00,
2013-04-20 04:07:00,26.0,25.0,30.06,WNW,290,0.0,0.0,96,-99.99,,,-99.99,,2013-04-20 10:07:00,
2013-04-20 04:12:00,26.0,25.0,30.06,WNW,290,0.0,0.0,95,-99.99,,,-99.99,,2013-04-20 10:12:00,
2013-04-20 04:22:00,26.0,25.0,30.06,WNW,290,0.0,0.0,95,-99.99,,,-99.99,,2013-04-20 10:22:00,
2013-04-20 04:27:00,26.0,25.0,30.05,WNW,290,0.0,0.0,96,-99.99,,,-99.99,,2013-04-20 10:27:00,
2013-04-20 04:37:00,26.0,25.0,30.05,WNW,290,0.0,0.0,96,-99.99,,,-99.99,,2013-04-20 10:37:00,
2013-04-20 04:42:00,26.0,25.0,30.05,WNW,290,0.0,0.0,97,-99.99,,,-99.99,,2013-04-20 10:42:00,
2013-04-20 04:47:00,26.0,25.0,30.05,WNW,290,0.0,0.0,97,-99.99,,,-99.99,,2013-04-20 10:47:00,
2013-04-20 04:57:00,26.0,25.0,30.05,WNW,290,0.0,0.0,97,-99.99,,,-99.99,,2013-04-20 10:57:00,
2013-04-20 05:02:00,26.0,25.0,30.05,WNW,290,0.0,0.0,97,-99.99,,,-99.99,,2013-04-20 11:02:00,
2013-04-20 05:12:00,26.0,25.0,30.05,WNW,290,0.0,0.0,98,-99.99,,,-99.99,,2013-04-20 11:12:00,
2013-04-20 05:22:00,26.0,25.0,30.05,WNW,290,0.0,0.0,98,-99.99,,,-99.99,,2013-04-20 11:22:00,
2013-04-20 05:32:00,26.0,25.0,30.05,WNW,290,0.0,0.0,98,-99.99,,,-99.99,,2013-04-20 11:32:00,
2013-04-20 05:42:00,26.0,25.0,30.05,WNW,290,0.0,0.0,98,-99.99,,,-99.99,,2013-04-20 11:42:00,
2013-04-20 05:52:00,26.0,25.0,30.05,WNW,290,0.0,0.0,99,-99.99,,,-99.99,,2013-04-20 11:52:00,
2013-04-20 06:02:00,26.0,25.0,30.05,WNW,290,0.0,0.0,98,-99.99,,,-99.99,,2013-04-20 12:02:00,
2013-04-20 06:07:00,26.0,25.0,30.05,WNW,290,0.0,0.0,98,-99.99,,,-99.99,,2013-04-20 12:07:00,
2013-04-20 06:12:00,26.0,25.0,30.04,WNW,290,0.0,0.0,98,-99.99,,,-99.99,,2013-04-20 12:12:00,
2013-04-20 06:17:00,26.0,25.0,30.05,WNW,290,0.0,0.0,98,-99.99,,,-99.99,,2013-04-20 12:17:00,
2013-04-20 06:27:00,26.0,25.0,30.05,WNW,290,0.0,0.0,98,-99.99,,,-99.99,,2013-04-20 12:27:00,
2013-04-20 06:37:00,26.0,26.0,30.05,WNW,290,0.0,0.0,99,-99.99,,,-99.99,,2013-04-20 12:37:00,
2013-04-20 06:42:00,26.0,26.0,30.05,WNW,290,0.0,0.0,99,-99.99,,,-99.99,,2013-04-20 12:42:00,
2013-04-20 06:47:00,26.0,26.0,30.05,WNW,290,0.0,0.0,98,-99.99,,,-99.99,,2013-04-20 12:47:00,
2013-04-20 06:52:00,26.0,26.0,30.04,WNW,290,0.0,0.0,98,-99.99,,,-99.99,,2013-04-20 12:52:00,
2013-04-20 07:02:00,26.0,26.0,30.05,WNW,290,0.0,0.0,98,-99.99,,,-99.99,,2013-04-20 13:02:00,
2013-04-20 07:07:00,26.0,26.0,30.05,WNW,290,0.0,0.0,98,-99.99,,,-99.99,,2013-04-20 13:07:00,
2013-04-20 07:12:00,26.0,26.0,30.06,WNW,290,0.0,0.0,98,-99.99,,,-99.99,,2013-04-20 13:12:00,
2013-04-20 07:17:00,26.0,26.0,30.06,WNW,290,0.0,0.0,98,-99.99,,,-99.99,,2013-04-20 13:17:00,
2013-04-20 07:27:00,27.0,26.0,30.06,WNW,290,0.0,0.0,97,-99.99,,,-99.99,,2013-04-20 13:27:00,
2013-04-20 07:32:00,27.0,26.0,30.06,WNW,290,0.0,0.0,97,-99.99,,,-99.99,,2013-04-20 13:32:00,
2013-04-20 07:37:00,27.0,26.0,30.06,WNW,290,0.0,0.0,96,-99.99,,,-99.99,,2013-04-20 13:37:00,
2013-04-20 07:47:00,28.0,27.0,30.06,WNW,290,0.0,0.0,96,-99.99,,,-99.99,,2013-04-20 13:47:00,
2013-04-20 07:57:00,28.0,27.0,30.06,WNW,290,0.0,0.0,96,-99.99,,,-99.99,,2013-04-20 13:57:00,
2013-04-20 08:12:00,29.0,27.0,30.06,WNW,290,0.0,0.0,93,-99.99,,,-99.99,,2013-04-20 14:12:00,
2013-04-20 08:17:00,29.0,27.0,30.06,WNW,290,0.0,0.0,93,-99.99,,,-99.99,,2013-04-20 14:17:00,
2013-04-20 08:22:00,30.0,28.0,30.06,WNW,290,0.0,0.0,93,-99.99,,,-99.99,,2013-04-20 14:22:00,
2013-04-20 08:32:00,32.0,29.0,30.06,SW,220,3.0,0.0,91,-99.99,,,-99.99,,2013-04-20 14:32:00,
2013-04-20 08:42:00,35.0,30.0,30.06,SW,220,0.0,3.0,83,-99.99,,,-99.99,,2013-04-20 14:42:00,
2013-04-20 08:47:00,36.0,30.0,30.06,SW,220,0.0,0.0,80,-99.99,,,-99.99,,2013-04-20 14:47:00,
2013-04-20 08:52:00,36.0,30.0,30.06,SW,220,0.0,0.0,79,-99.99,,,-99.99,,2013-04-20 14:52:00,
2013-04-20 08:57:00,36.0,30.0,30.06,SW,220,0.0,0.0,79,-99.99,,,-99.99,,2013-04-20 14:57:00,
2013-04-20 09:02:00,36.0,30.0,30.06,ESE,110,0.0,3.0,79,-99.99,,,-99.99,,2013-04-20 15:02:00,
2013-04-20 09:07:00,36.0,30.0,30.06,WNW,290,3.0,0.0,80,-99.99,,,-99.99,,2013-04-20 15:07:00,
2013-04-20 09:12:00,36.0,30.0,30.06,West,260,0.0,6.0,78,-99.99,,,-99.99,,2013-04-20 15:12:00,
2013-04-20 09:22:00,35.0,29.0,30.06,WNW,290,6.0,6.0,79,-99.99,,,-99.99,,2013-04-20 15:22:00,
2013-04-20 09:32:00,34.0,29.0,30.06,WNW,290,7.0,8.0,81,-99.99,,,-99.99,,2013-04-20 15:32:00,
2013-04-20 09:37:00,33.0,29.0,30.07,NW,310,7.0,8.0,82,-99.99,,,-99.99,,2013-04-20 15:37:00,
2013-04-20 09:42:00,33.0,29.0,30.07,WNW,300,3.0,8.0,85,-99.99,,,-99.99,,2013-04-20 15:42:00,
2013-04-20 09:47:00,33.0,30.0,30.07,NW,320,7.0,7.0,86,-99.99,,,-99.99,,2013-04-20 15:47:00,
2013-04-20 09:57:00,34.0,30.0,30.07,West,280,6.0,6.0,87,-99.99,,,-99.99,,2013-04-20 15:57:00,
2013-04-20 10:02:00,34.0,31.0,30.07,WNW,300,0.0,5.0,87,-99.99,,,-99.99,,2013-04-20 16:02:00,
2013-04-20 10:07:00,35.0,31.0,30.07,WNW,300,0.0,4.0,87,-99.99,,,-99.99,,2013-04-20 16:07:00,
2013-04-20 10:12:00,35.0,31.0,30.07,WNW,300,0.0,0.0,86,-99.99,,,-99.99,,2013-04-20 16:12:00,
2013-04-20 10:17:00,35.0,31.0,30.07,WNW,300,0.0,0.0,85,-99.99,,,-99.99,,2013-04-20 16:17:00,
2013-04-20 10:22:00,37.0,32.0,30.07,SW,220,3.0,5.0,85,-99.99,,,-99.99,,2013-04-20 16:22:00,
2013-04-20 10:27:00,38.0,32.0,30.07,SW,220,0.0,5.0,81,-99.99,,,-99.99,,2013-04-20 16:27:00,
2013-04-20 10:37:00,39.0,32.0,30.06,West,270,4.0,0.0,77,-99.99,,,-99.99,,2013-04-20 16:37:00,
2013-04-20 10:47:00,40.0,33.0,30.06,West,260,5.0,7.0,76,-99.99,,,-99.99,,2013-04-20 16:47:00,
2013-04-20 10:52:00,40.0,33.0,30.07,SSW,200,0.0,7.0,74,-99.99,,,-99.99,,2013-04-20 16:52:00,
2013-04-20 10:57:00,41.0,33.0,30.06,WSW,240,0.0,6.0,74,-99.99,,,-99.99,,2013-04-20 16:57:00,
2013-04-20 11:07:00,41.0,32.0,30.06,NE,50,6.0,7.0,70,-99.99,,,-99.99,,2013-04-20 17:07:00,
2013-04-20 11:12:00,40.0,31.0,30.06,ENE,70,2.0,6.0,71,-99.99,,,-99.99,,2013-04-20 17:12:00,
2013-04-20 11:17:00,40.0,31.0,30.06,NNE,30,6.0,7.0,71,-99.99,,,-99.99,,2013-04-20 17:17:00,
2013-04-20 11:27:00,40.0,32.0,30.06,NNE,30,6.0,6.0,72,-99.99,,,-99.99,,2013-04-20 17:27:00,
2013-04-20 11:32:00,40.0,31.0,30.06,WNW,290,3.0,8.0,69,-99.99,,,-99.99,,2013-04-20 17:32:00,
2013-04-20 11:42:00,40.0,30.0,30.06,NNE,30,3.0,5.0,67,-99.99,,,-99.99,,2013-04-20 17:42:00,
2013-04-20 11:52:00,40.0,30.0,30.06,NNE,20,6.0,6.0,65,-99.99,,,-99.99,,2013-04-20 17:52:00,
2013-04-20 12:02:00,41.0,31.0,30.06,NNE,30,5.0,6.0,67,-99.99,,,-99.99,,2013-04-20 18:02:00,
2013-04-20 12:07:00,41.0,31.0,30.06,NNE,30,7.0,7.0,66,-99.99,,,-99.99,,2013-04-20 18:07:00,
2013-04-20 12:12:00,41.0,30.0,30.06,WNW,290,4.0,8.0,64,-99.99,,,-99.99,,2013-04-20 18:12:00,
2013-04-20 12:17:00,41.0,31.0,30.06,NW,320,0.0,9.0,65,-99.99,,,-99.99,,2013-04-20 18:17:00,
2013-04-20 12:22:00,42.0,31.0,30.06,WSW,240,6.0,6.0,66,-99.99,,,-99.99,,2013-04-20 18:22:00,
2013-04-20 12:27:00,42.0,31.0,30.06,WSW,240,6.0,8.0,64,-99.99,,,-99.99,,2013-04-20 18:27:00,
2013-04-20 12:32:00,43.0,32.0,30.06,SW,220,5.0,7.0,65,-99.99,,,-99.99,,2013-04-20 18:32:00,
2013-04-20 12:42:00,44.0,32.0,30.05,NNW,340,6.0,9.0,62,-99.99,,,-99.99,,2013-04-20 18:42:00,
2013-04-20 12:47:00,44.0,31.0,30.04,WNW,300,5.0,13.0,61,-99.99,,,-99.99,,2013-04-20 18:47:00,
2013-04-20 12:57:00,44.0,32.0,30.04,NNW,340,10.0,13.0,62,-99.99,,,-99.99,,2013-04-20 18:57:00,
2013-04-20 13:02:00,44.0,32.0,30.04,North,10,7.0,12.0,61,-99.99,,,-99.99,,2013-04-20 19:02:00,
2013-04-20 13:07:00,44.0,32.0,30.04,NNW,330,8.0,11.0,61,-99.99,,,-99.99,,2013-04-20 19:07:00,
2013-04-20 13:12:00,44.0,31.0,30.04,West,280,9.0,12.0,59,-99.99,,,-99.99,,2013-04-20 19:12:00,
2013-04-20 13:17:00,44.0,31.0,30.04,NNW,340,12.0,15.0,60,-99.99,,,-99.99,,2013-04-20 19:17:00,
2013-04-20 13:22:00,44.0,31.0,30.04,NNE,30,9.0,15.0,59,-99.99,,,-99.99,,2013-04-20 19:22:00,
2013-04-20 13:27:00,44.0,31.0,30.04,NNE,20,7.0,13.0,60,-99.99,,,-99.99,,2013-04-20 19:27:00,
2013-04-20 13:32:00,45.0,31.0,30.04,North,0,8.0,12.0,60,-99.99,,,-99.99,,2013-04-20 19:32:00,
2013-04-20 13:37:00,45.0,33.0,30.04,NW,320,8.0,13.0,61,-99.99,,,-99.99,,2013-04-20 19:37:00,
2013-04-20 13:42:00,45.0,32.0,30.04,North,10,9.0,14.0,59,-99.99,,,-99.99,,2013-04-20 19:42:00,
2013-04-20 13:52:00,45.0,31.0,30.04,North,350,11.0,13.0,57,-99.99,,,-99.99,,2013-04-20 19:52:00,
2013-04-20 13:57:00,46.0,30.0,30.04,NW,320,10.0,15.0,54,-99.99,,,-99.99,,2013-04-20 19:57:00,
2013-04-20 14:02:00,45.0,29.0,30.04,West,280,11.0,14.0,53,-99.99,,,-99.99,,2013-04-20 20:02:00,
2013-04-20 14:12:00,45.0,29.0,30.04,North,350,15.0,15.0,54,-99.99,,,-99.99,,2013-04-20 20:12:00,
2013-04-20 14:22:00,46.0,31.0,30.04,North,10,14.0,19.0,55,-99.99,,,-99.99,,2013-04-20 20:22:00,
2013-04-20 14:27:00,46.0,31.0,30.04,NNW,330,11.0,15.0,56,-99.99,,,-99.99,,2013-04-20 20:27:00,
2013-04-20 14:37:00,45.0,31.0,30.05,NNW,330,13.0,17.0,56,-99.99,,,-99.99,,2013-04-20 20:37:00,
2013-04-20 14:42:00,44.0,31.0,30.05,NW,320,12.0,19.0,60,-99.99,,,-99.99,,2013-04-20 20:42:00,
2013-04-20 14:47:00,44.0,32.0,30.05,NW,320,20.0,22.0,63,-99.99,,,-99.99,,2013-04-20 20:47:00,
2013-04-20 14:52:00,44.0,32.0,30.05,NNW,330,20.0,21.0,62,-99.99,,,-99.99,,2013-04-20 20:52:00,
2013-04-20 14:57:00,44.0,32.0,30.05,North,0,21.0,24.0,64,-99.99,,,-99.99,,2013-04-20 20:57:00,
2013-04-20 15:07:00,41.0,33.0,30.06,NNW,330,10.0,20.0,73,-99.99,,,-99.99,,2013-04-20 21:07:00,
2013-04-20 15:12:00,41.0,32.0,30.06,WNW,300,12.0,18.0,71,-99.99,,,-99.99,,2013-04-20 21:12:00,
2013-04-20 15:17:00,40.0,31.0,30.06,WNW,290,11.0,21.0,70,-99.99,,,-99.99,,2013-04-20 21:17:00,
2013-04-20 15:27:00,40.0,31.0,30.06,NW,310,0.0,12.0,68,-99.99,,,-99.99,,2013-04-20 21:27:00,
2013-04-20 15:32:00,41.0,32.0,30.06,North,0,7.0,8.0,69,-99.99,,,-99.99,,2013-04-20 21:32:00,
2013-04-20 15:37:00,41.0,32.0,30.06,NNW,330,7.0,8.0,69,-99.99,,,-99.99,,2013-04-20 21:37:00,
2013-04-20 15:42:00,42.0,32.0,30.06,WSW,240,5.0,8.0,67,-99.99,,,-99.99,,2013-04-20 21:42:00,
2013-04-20 15:52:00,43.0,32.0,30.06,NW,310,9.0,12.0,65,-99.99,,,-99.99,,2013-04-20 21:52:00,
2013-04-20 15:57:00,43.0,32.0,30.06,NNW,330,7.0,13.0,64,-99.99,,,-99.99,,2013-04-20 21:57:00,
2013-04-20 16:02:00,43.0,32.0,30.06,NW,320,4.0,11.0,64,-99.99,,,-99.99,,2013-04-20 22:02:00,
2013-04-20 16:07:00,43.0,31.0,30.06,NW,320,8.0,11.0,62,-99.99,,,-99.99,,2013-04-20 22:07:00,
2013-04-20 16:17:00,43.0,31.0,30.06,WNW,300,9.0,14.0,61,-99.99,,,-99.99,,2013-04-20 22:17:00,
2013-04-20 16:22:00,43.0,31.0,30.06,North,0,9.0,14.0,61,-99.99,,,-99.99,,2013-04-20 22:22:00,
2013-04-20 16:27:00,43.0,30.0,30.06,NNW,340,18.0,18.0,60,-99.99,,,-99.99,,2013-04-20 22:27:00,
2013-04-20 16:37:00,43.0,31.0,30.06,WNW,300,13.0,15.0,64,-99.99,,,-99.99,,2013-04-20 22:37:00,
2013-04-20 16:42:00,43.0,31.0,30.06,NW,320,12.0,14.0,63,-99.99,,,-99.99,,2013-04-20 22:42:00,
2013-04-20 16:47:00,43.0,31.0,30.07,NNW,330,9.0,16.0,63,-99.99,,,-99.99,,2013-04-20 22:47:00,
2013-04-20 16:52:00,43.0,32.0,30.07,NNW,330,12.0,19.0,66,-99.99,,,-99.99,,2013-04-20 22:52:00,
2013-04-20 17:02:00,42.0,31.0,30.07,NW,320,6.0,16.0,65,-99.99,,,-99.99,,2013-04-20 23:02:00,
2013-04-20 17:07:00,43.0,31.0,30.07,NNW,340,11.0,13.0,62,-99.99,,,-99.99,,2013-04-20 23:07:00,
2013-04-20 17:17:00,44.0,32.0,30.07,NW,310,8.0,13.0,62,-99.99,,,-99.99,,2013-04-20 23:17:00,
2013-04-20 17:22:00,44.0,31.0,30.07,NW,320,11.0,14.0,62,-99.99,,,-99.99,,2013-04-20 23:22:00,
2013-04-20 17:32:00,43.0,31.0,30.07,NNE,20,13.0,13.0,63,-99.99,,,-99.99,,2013-04-20 23:32:00,
2013-04-20 17:42:00,42.0,31.0,30.08,North,10,5.0,15.0,64,-99.99,,,-99.99,,2013-04-20 23:42:00,
2013-04-20 17:47:00,42.0,31.0,30.07,NNW,340,9.0,12.0,64,-99.99,,,-99.99,,2013-04-20 23:47:00,
2013-04-20 17:52:00,41.0,30.0,30.07,North,350,11.0,14.0,64,-99.99,,,-99.99,,2013-04-20 23:52:00,
2013-04-20 17:57:00,41.0,31.0,30.08,NNW,340,10.0,14.0,66,-99.99,,,-99.99,,2013-04-20 23:57:00,
2013-04-20 18:07:00,41.0,31.0,30.08,NNW,330,14.0,16.0,68,-99.99,,,-99.99,,2013-04-21 00:07:00,
2013-04-20 18:12:00,40.0,31.0,30.08,NNW,340,8.0,17.0,69,-99.99,,,-99.99,,2013-04-21 00:12:00,
2013-04-20 18:22:00,40.0,31.0,30.08,NNW,340,16.0,16.0,70,-99.99,,,-99.99,,2013-04-21 00:22:00,
2013-04-20 18:27:00,40.0,32.0,30.08,NNW,330,5.0,14.0,71,-99.99,,,-99.99,,2013-04-21 00:27:00,
2013-04-20 18:32:00,41.0,32.0,30.08,NNW,330,8.0,11.0,71,-99.99,,,-99.99,,2013-04-21 00:32:00,
2013-04-20 18:42:00,41.0,32.0,30.09,North,350,9.0,11.0,69,-99.99,,,-99.99,,2013-04-21 00:42:00,
2013-04-20 18:52:00,41.0,31.0,30.09,NNW,330,9.0,11.0,68,-99.99,,,-99.99,,2013-04-21 00:52:00,
2013-04-20 18:57:00,41.0,31.0,30.09,NNW,340,10.0,13.0,69,-99.99,,,-99.99,,2013-04-21 00:57:00,
2013-04-20 19:02:00,40.0,31.0,30.09,NNW,340,8.0,13.0,70,-99.99,,,-99.99,,2013-04-21 01:02:00,
2013-04-20 19:07:00,40.0,31.0,30.09,NNW,340,7.0,11.0,71,-99.99,,,-99.99,,2013-04-21 01:07:00,
2013-04-20 19:17:00,39.0,31.0,30.10,NNW,340,0.0,11.0,73,-99.99,,,-99.99,,2013-04-21 01:17:00,
2013-04-20 19:27:00,39.0,30.0,30.11,WSW,240,3.0,10.0,70,-99.99,,,-99.99,,2013-04-21 01:27:00,
2013-04-20 19:37:00,38.0,31.0,30.11,SW,230,12.0,13.0,76,-99.99,,,-99.99,,2013-04-21 01:37:00,
2013-04-20 19:47:00,37.0,31.0,30.12,WNW,300,7.0,13.0,79,-99.99,,,-99.99,,2013-04-21 01:47:00,
2013-04-20 19:57:00,36.0,31.0,30.12,NE,40,7.0,9.0,79,-99.99,,,-99.99,,2013-04-21 01:57:00,
2013-04-20 20:02:00,36.0,31.0,30.12,North,350,9.0,9.0,80,-99.99,,,-99.99,,2013-04-21 02:02:00,
2013-04-20 20:07:00,36.0,31.0,30.13,North,350,9.0,13.0,82,-99.99,,,-99.99,,2013-04-21 02:07:00,
2013-04-20 20:12:00,36.0,32.0,30.14,NNW,340,10.0,12.0,85,-99.99,,,-99.99,,2013-04-21 02:12:00,
2013-04-20 20:22:00,34.0,32.0,30.15,North,0,9.0,14.0,93,-99.99,,,-99.99,,2013-04-21 02:22:00,
2013-04-20 20:27:00,34.0,32.0,30.15,NNE,30,4.0,12.0,94,-99.99,,,-99.99,,2013-04-21 02:27:00,
2013-04-20 20:32:00,33.0,32.0,30.15,NNW,330,7.0,9.0,95,-99.99,,,-99.99,,2013-04-21 02:32:00,
2013-04-20 20:42:00,33.0,32.0,30.15,NNW,330,4.0,7.0,96,-99.99,,,-99.99,,2013-04-21 02:42:00,
2013-04-20 20:52:00,33.0,32.0,30.15,WNW,290,0.0,6.0,98,-99.99,,,-99.99,,2013-04-21 02:52:00,
2013-04-20 21:02:00,33.0,32.0,30.16,WNW,290,0.0,0.0,98,-99.99,,,-99.99,,2013-04-21 03:02:00,
2013-04-20 21:07:00,33.0,32.0,30.16,WNW,290,0.0,0.0,98,-99.99,,,-99.99,,2013-04-21 03:07:00,
2013-04-20 21:17:00,33.0,32.0,30.16,WNW,290,0.0,0.0,98,-99.99,,,-99.99,,2013-04-21 03:17:00,
2013-04-20 21:27:00,33.0,32.0,30.16,WNW,290,0.0,0.0,98,-99.99,,,-99.99,,2013-04-21 03:27:00,
2013-04-20 21:37:00,32.0,32.0,30.16,WNW,290,0.0,0.0,99,-99.99,,,-99.99,,2013-04-21 03:37:00,
2013-04-20 21:47:00,32.0,32.0,30.16,WNW,290,0.0,0.0,100,-99.99,,,-99.99,,2013-04-21 03:47:00,
2013-04-20 21:57:00,32.0,32.0,30.17,WNW,290,0.0,0.0,99,-99.99,,,-99.99,,2013-04-21 03:57:00,
2013-04-20 22:02:00,32.0,32.0,30.17,WNW,290,0.0,0.0,99,-99.99,,,-99.99,,2013-04-21 04:02:00,
2013-04-20 22:07:00,32.0,32.0,30.17,WNW,290,0.0,0.0,99,-99.99,,,-99.99,,2013-04-21 04:07:00,
2013-04-20 22:17:00,32.0,32.0,30.17,WNW,290,0.0,0.0,100,-99.99,,,-99.99,,2013-04-21 04:17:00,
2013-04-20 22:22:00,32.0,32.0,30.17,WNW,290,0.0,0.0,100,-99.99,,,-99.99,,2013-04-21 04:22:00,
2013-04-20 22:27:00,32.0,32.0,30.17,WNW,290,0.0,0.0,100,-99.99,,,-99.99,,2013-04-21 04:27:00,
2013-04-20 22:37:00,32.0,32.0,30.17,WNW,290,0.0,0.0,99,-99.99,,,-99.99,,2013-04-21 04:37:00,
2013-04-20 22:42:00,32.0,32.0,30.17,WNW,290,0.0,0.0,100,-99.99,,,-99.99,,2013-04-21 04:42:00,
2013-04-20 22:47:00,32.0,32.0,30.18,WNW,290,0.0,0.0,100,-99.99,,,-99.99,,2013-04-21 04:47:00,
2013-04-20 22:57:00,31.0,31.0,30.18,WNW,290,0.0,0.0,99,-99.99,,,-99.99,,2013-04-21 04:57:00,
2013-04-20 23:02:00,31.0,31.0,30.18,WNW,290,0.0,0.0,100,-99.99,,,-99.99,,2013-04-21 05:02:00,
2013-04-20 23:12:00,31.0,31.0,30.18,WNW,290,0.0,0.0,100,-99.99,,,-99.99,,2013-04-21 05:12:00,
2013-04-20 23:22:00,31.0,31.0,30.18,WNW,290,0.0,0.0,100,-99.99,,,-99.99,,2013-04-21 05:22:00,
2013-04-20 23:32:00,31.0,31.0,30.18,WNW,290,0.0,0.0,100,-99.99,,,-99.99,,2013-04-21 05:32:00,
2013-04-20 23:42:00,31.0,31.0,30.18,WNW,290,0.0,0.0,100,-99.99,,,-99.99,,2013-04-21 05:42:00,
2013-04-20 23:52:00,30.0,30.0,30.17,WNW,290,0.0,0.0,100,-99.99,,,-99.99,,2013-04-21 05:52:00,